SCP
0 0 0 0 0 0 0 0 0 0 0 0 0 0 0 0 0 0 0 0 0 0 0 0 0 0 0 0 0 0 0 0 0 0 0 0 0 0 0 0 0 0 0 0 0 0 0 0 0 0 0 0 -0 0
0 0 0 0 0 0 0 0 0 0 0 0 0 0 0 0 0 0 0 0 0 0 0 0 0 0 0 0 0 0 0 0 0 0 0 0 0 0 0 0 0 0 0 0 0 0 0 0 0 0 0 0 0 0
0 0 0 0 0 0 0 0 0 0 0 0 0 0 0 0 0 0 0 0 0 0 0 0 0 0 0 0 0 0 0 0 0 0 0 0 0 0 0 0 0 0 0 0 0 0 0 0 0 0 0 0 0 0
0 0 0 0 0 0 0 0 0 0 0 0 0 0 0 0 0 0 0 0 0 0 0 0 0 0 0 0 0 0 0 0 0 0 0 0 0 0 0 0 0 0 0 0 0 0 0 0 0 0 0 0 0 0
0 0 0 0 0 0 0 0 0 0 0 0 0 0 0 0 0 0 0 0 0 0 0 0 0 0 0 0 0 0 0 0 0 0 0 0 0 0 0 0 0 0 0 0 0 0 0 0 0 0 0 0 0 0
0 0 0 0 0 0 0 0 0 0 0 0 0 0 0 0 0 0 0 0 0 0 0 0 0 0 0 0 0 0 0 0 0 0 0 0 0 0 0 0 0 0 0 0 0 0 0 0 0 0 0 0 0 0
0 0 0 0 0 0 0 0 0 0 0 0 0 0 0 0 0 0 0 0 0 0 0 0 0 0 0 0 0 0 0 0 0 0 0 0 0 0 0 0 0 0 0 0 0 0 0 0 0 0 0 0 0 0
0 0 0 0 0 0 0 0 0 0 0 0 0 0 0 0 0 0 0 0 0 0 0 0 0 0 0 0 0 0 0 0 0 0 0 0 0 0 0 0 0 0 0 0 0 0 0 0 0 0 0 0 0 0
0 0 0 0 0 0 0 0 0 0 0 0 0 0 0 0 0 0 0 0 0 0 0 0 0 0 0 0 0 0 0 0 0 0 0 0 0 0 0 0 0 0 0 0 0 0 0 0 0 0 0 0 0 0
0 0 0 0 0 0 0 0 0 0 0 0 0 0 0 0 0 0 0 0 0 0 0 0 0 0 0 0 0 0 0 0 0 0 0 0 0 0 0 0 0 0 0 0 0 0 0 0 0 0 0 0 0 0
0 0 0 0 0 0 0 0 0 0 0 0 0 0 0 0 0 0 0 0 0 0 0 0 0 0 0 0 0 0 0 0 0 0 0 0 0 0 0 0 0 0 0 0 0 0 0 0 0 0 0 0 0 0
0 0 0 0 0 0 0 0 0 0 0 0 0 0 0 0 0 0 0 0 0 0 0 0 0 0 0 0 0 0 0 0 0 0 0 0 0 0 0 0 0 -0 0 0 0 0 0 0 0 0 0 0 0 0
0 0 0 0 0 0 0 0 0 0 0 0 0 0 0 0 0 0 0 0 0 0 0 0 0 0 0 0 0 0 0 0 0 0 0 0 0 0 0 0 0 0 0 0 0 0 0 0 0 0 0 0 0 0
0 0 0 0 0 0 0 0 0 0 0 0 0 0 0 0 0 0 0 0 0 0 0 0 0 0 0 0 0 0 0 0 0 0 0 0 0 0 0 0 0 0 0 0 0 0 0 0 0 0 -0 0 0 0
0 -0 0 0 0 0 0 0 0 0 0 0 0 0 0 0 0 0 0 0 0 0 0 0 0 0 0 0 0 0 0 0 0 0 0 0 0 0 0 0 0 0 0 0 0 0 0 0 0 0 0 0 0 0
0 0 0 0 0 0 0 0 0 0 0 0 0 0 0 0 0 0 0 0 0 0 0 0 0 0 0 0 0 0 0 0 0 0 0 0 0 0 0 0 0 0 0 0 0 0 0 0 0 0 0 0 0 0
0 0 0 0 0 0 0 0 0 0 0 0 0 0 0 0 0 0 0 0 0 0 0 0 0 0 0 0 0 0 0 0 0 0 0 0 0 0 0 0 0 0 0 0 0 0 0 0 0 0 0 0 0 0
0 0 0 0 0 0 0 0 0 0 0 0 0 0 0 0 0 0 0 0 0 0 0 0 0 0 0 0 0 0 0 0 0 0 0 0 0 0 0 0 0 0 0 0 0 0 0 0 0 0 0 0 0 0
0 0 0 0 0 0 0 0 0 0 0 0 0 0 0 0 0 0 0 0 0 0 0 0 0 0 0 0 0 0 0 0 0 0 0 0 0 0 0 0 0 0 0 0 0 0 0 0 0 0 0 0 0 0
0 0 0 0 0 0 0 0 0 0 0 0 0 0 0 0 0 0 0 0 0 0 0 0 0 0 0 0 0 0 0 0 0 0 0 0 0 0 0 0 0 0 0 0 0 0 0 0 0 0 0 0 0 0
0 0 0 0 0 0 0 0 0 0 0 0 0 0 0 0 0 0 0 0 0 0 0 0 0 0 0 0 0 0 0 0 0 0 0 0 0 0 0 0 0 0 0 0 0 0 0 0 0 0 0 0 0 0
0 0 0 0 0 0 0 0 0 0 0 0 0 0 0 0 0 0 0 0 0 0 0 0 0 0 0 0 0 0 0 0 0 0 0 0 0 0 0 0 0 0 0 0 0 0 0 0 0 0 0 0 0 0
0 0 0 0 0 0 0 0 0 0 0 0 0 0 0 0 0 0 0 0 0 0 0 0 0 0 0 0 0 0 0 0 0 0 0 0 0 0 0 0 0 0 0 0 0 0 0 0 0 0 0 0 0 0
0 0 0 0 0 0 0 0 0 0 0 0 0 0 0 0 0 0 0 0 0 0 0 0 0 0 0 0 0 0 0 0 0 0 0 0 0 0 0 0 0 0 0 0 0 0 0 0 0 0 0 0 0 0
0 0 0 0 0 0 0 0 0 0 0 0 0 0 0 0 0 0 0 0 0 0 0 0 0 0 0 0 0 0 0 0 0 0 0 0 0 0 0 0 0 0 0 0 0 0 0 0 0 0 0 0 0 0
0 0 0 0 0 0 0 0 0 0 0 0 0 0 0 0 0 0 0 0 0 0 0 0 0 0 0 0 0 0 0 0 0 0 0 0 0 0 0 0 0 0 0 0 0 0 0 0 0 0 0 0 0 0
0 0 -0 -0 -0 -0 0 0 0 0 0 0 0 0 0 0 0 0 0 0 0 0 0 0 0 0 0 0 0 0 0 0 0 0 0 -0 -0 -0 -0 -0 0 0 0 0 0 0 0 0 0 0 0 0 0 0
0 -0 0 0 0 0 0 0 0 0 0 0 0 0 0 0 0 0 0 0 0 0 0 0 0 0 0 0 0 0 0 0 0 0 0 0 0 0 0 0 -0 0 0 0 0 0 0 0 0 0 0 0 0 0
0 0 0 0 0 0 -0 -0 0 0 0 0 0 0 0 0 0 0 0 0 0 0 0 0 0 0 0 0 0 0 0 0 0 0 0 0 0 0 0 0 0 0 0 0 0 0 0 0 0 0 0 0 0 0
0 0 0 0 0 0 0 0 0 0 0 0 0 0 0 0 0 0 0 0 0 0 0 0 0 0 0 0 0 0 0 0 0 0 0 0 0 0 0 -0 -0 -0 0 0 0 0 0 0 0 0 0 0 0 0
0 0 0 0 0 0 0 0 0 0 0 0 0 0 0 0 0 0 0 0 0 0 0 0 0 0 0 0 0 0 0 0 0 0 0 0 0 -0 -0 -0 -0 0 0 0 0 0 0 0 0 0 0 0 0 0
-0 0 0 -0 -0 0 0 -0 0 0 0 0 0 0 0 0 0 0 0 0 0 0 0 0 0 0 0 0 0 0 0 0 0 0 0 0 0 -0 -0 -0 -0 0 0 0 0 0 0 0 0 0 0 0 0 0
0 0 0 0 0 0 0 0 -0 -0 -0 -0 0 0 0 0 0 0 0 0 0 0 0 0 0 0 0 0 -0 0 -0 -0 -0 0 0 0 -0 -0 -0 -0 -0 -0 0 0 0 0 0 0 0 0 0 0 0 0
Wind_Speed_500mb
51 61 62 55 48 39 31 20 14 11 13 14 12 9 10 9 9 10 13 20 14 6 7 11 14 13 12 10 3 6 6 10 9 9 6 5 5 5 6 5 7 10 10 5 6 5 7 21 11 11 12 19 17 20
44 48 58 60 53 46 39 32 24 15 10 15 15 11 9 6 4 6 7 14 13 5 1 8 12 14 17 20 8 6 5 4 6 9 2 5 3 3 6 6 2 2 11 10 14 11 4 41 5 16 26 29 25 23
53 42 44 53 55 48 41 37 34 27 18 13 15 14 9 7 5 6 9 10 10 7 2 4 9 12 14 18 18 2 2 5 8 7 12 5 5 6 6 7 2 1 6 6 5 6 10 31 14 18 31 20 11 14
55 48 44 41 44 47 44 39 36 34 29 22 18 16 11 8 3 4 6 10 10 6 3 2 8 9 11 14 14 17 17 16 16 9 5 5 5 10 7 4 5 5 11 8 6 9 3 16 35 23 28 20 20 24
61 53 49 45 39 38 39 40 36 34 31 24 21 19 15 8 5 6 5 4 7 6 3 6 2 6 8 4 8 6 4 2 1 3 5 3 9 8 2 3 4 13 12 8 10 16 20 19 35 36 33 27 28 28
60 60 51 45 40 36 37 36 34 33 30 26 22 17 16 12 8 5 3 5 7 4 8 5 3 5 13 5 4 4 5 4 1 1 2 3 5 5 6 6 10 18 18 20 8 14 32 13 26 37 35 29 26 31
55 59 60 48 44 39 35 33 30 29 27 22 16 13 12 14 17 12 3 3 9 4 3 8 12 2 15 11 3 4 7 1 2 1 1 2 4 4 5 9 17 29 22 14 11 15 15 20 27 37 36 35 36 39
49 55 58 55 45 41 35 33 32 29 26 20 13 9 11 15 19 18 5 2 8 5 2 2 9 2 16 8 6 6 8 8 2 1 2 2 4 1 6 13 20 33 24 17 11 21 16 19 30 36 43 42 44 46
46 50 54 59 47 40 35 34 32 31 28 19 10 6 8 11 11 16 8 5 10 2 2 4 6 6 12 8 7 6 6 3 2 2 3 4 2 7 15 18 21 31 35 23 20 18 23 29 30 35 41 39 39 45
44 45 50 59 54 41 35 32 29 33 30 18 10 8 8 15 16 22 9 6 9 10 9 9 7 5 7 8 4 6 2 3 1 4 4 3 7 27 35 31 20 18 16 23 16 16 22 20 31 27 32 28 27 33
47 40 47 53 51 44 36 35 36 34 27 20 14 7 16 28 17 11 7 6 7 4 12 11 22 6 12 6 7 6 5 2 2 7 7 3 6 8 21 20 25 22 8 9 15 6 4 5 7 14 11 13 23 31
47 46 50 50 52 50 44 40 39 36 24 23 14 19 27 9 7 7 4 2 6 10 12 14 19 27 10 11 6 9 5 3 8 9 5 4 7 22 21 18 2 24 34 22 10 4 10 11 11 13 18 15 19 30
43 54 49 48 55 54 47 43 42 39 26 23 11 12 9 7 6 13 14 6 5 12 16 15 9 13 12 10 7 6 6 9 15 4 6 8 14 19 17 17 2 12 20 29 28 17 15 17 14 13 18 21 25 24
46 61 49 61 60 55 47 44 43 37 28 11 11 4 10 6 9 10 11 9 11 8 24 28 17 7 9 8 7 8 6 8 4 4 8 4 9 18 21 18 9 17 18 19 18 17 13 8 7 9 13 16 20 26
52 53 60 56 58 55 47 45 40 37 12 7 8 8 11 14 11 9 19 8 7 11 20 15 9 8 3 6 4 6 5 7 9 10 5 7 11 18 22 26 28 29 25 22 17 12 7 3 5 8 11 17 21 21
46 51 53 59 55 62 51 44 32 31 5 6 9 6 10 3 9 17 21 20 16 10 6 6 7 6 7 6 7 12 14 10 7 7 21 26 29 30 32 30 30 27 23 20 16 13 10 10 11 11 11 12 16 21
53 44 51 50 53 57 49 37 22 11 9 6 8 14 21 20 21 18 17 21 18 19 6 8 9 14 7 5 7 6 11 7 31 39 32 32 33 33 31 30 28 24 22 21 20 20 21 19 15 14 15 15 17 19
43 52 52 55 49 40 33 12 11 7 4 11 12 8 11 18 16 18 16 24 30 26 14 7 9 6 7 11 5 9 17 39 40 41 39 37 35 32 26 24 21 19 20 20 21 19 17 19 22 23 22 23 25 26
55 56 43 44 45 22 8 12 8 8 15 12 16 25 17 11 13 12 12 25 33 25 13 12 6 6 7 9 17 45 53 56 55 46 41 35 30 23 19 16 14 13 15 17 20 22 22 22 21 21 22 23 23 23
51 57 53 47 41 9 7 6 12 4 6 4 12 13 7 6 10 6 8 20 25 17 7 5 9 10 11 27 51 55 52 52 50 46 37 28 20 11 6 7 11 14 15 18 21 23 25 26 29 32 33 33 35 35
45 40 39 30 22 8 5 8 9 7 4 7 16 9 4 9 7 3 3 6 6 4 6 7 26 49 43 45 47 47 43 32 26 23 22 15 7 5 12 18 21 26 30 33 36 37 39 41 41 41 40 39 37 37
46 53 28 30 6 4 4 12 8 3 8 10 13 9 4 7 4 2 3 7 5 4 15 42 47 49 46 42 37 30 26 20 16 9 4 2 6 12 18 22 24 27 30 32 34 36 37 36 36 36 37 37 35 33
37 34 16 9 6 8 7 16 10 8 8 9 14 2 2 4 1 6 4 3 6 28 35 36 38 36 33 30 24 20 16 9 6 7 9 12 15 18 22 26 29 31 34 35 40 44 46 49 51 53 54 55 57 56
23 8 8 10 13 6 5 10 11 8 6 5 7 7 5 9 6 2 3 6 17 30 31 32 34 36 32 31 29 27 25 23 20 18 15 12 14 19 25 30 35 40 44 49 51 53 54 54 56 58 59 62 64 65
7 8 6 8 10 7 9 6 7 6 5 7 7 5 10 16 4 5 7 13 27 28 28 27 35 38 43 39 33 31 28 22 17 13 13 19 26 32 36 39 40 42 43 45 46 49 52 52 51 53 53 50 51 53
11 19 15 17 16 11 10 9 11 10 7 8 10 10 9 8 7 8 8 23 29 31 30 34 44 46 43 40 40 35 25 19 17 17 18 22 25 30 34 38 42 40 37 38 41 43 44 45 46 48 45 44 51 57
5 10 15 17 11 12 10 8 8 8 7 6 6 6 5 8 9 8 16 26 31 31 30 33 37 43 41 38 32 26 21 18 16 15 16 17 17 24 28 30 32 33 34 36 39 42 45 47 47 48 49 53 55 58
9 9 9 13 8 9 6 6 7 9 8 11 16 6 12 12 8 7 12 23 26 31 31 28 26 24 22 20 18 18 19 18 17 18 19 16 13 20 24 23 26 34 38 41 39 36 39 43 49 55 57 60 61 61
11 7 12 8 3 3 6 6 6 7 10 16 11 7 9 8 9 11 12 26 32 28 18 15 16 15 14 14 14 15 17 21 24 24 25 26 25 23 28 33 36 39 41 39 36 39 43 46 46 48 57 62 65 67
3 3 4 5 5 3 3 7 11 14 12 11 9 11 10 11 8 14 21 25 23 17 16 18 18 16 15 15 15 15 16 14 14 19 24 28 30 32 37 34 36 36 35 37 42 45 41 37 37 50 62 60 59 63
0 4 4 2 4 5 16 24 23 18 12 7 7 8 12 11 12 20 22 20 19 19 15 16 17 16 15 14 14 14 13 13 15 18 22 25 27 29 32 34 36 40 36 39 41 44 35 35 43 48 50 52 50 45
4 3 5 4 6 15 13 6 6 5 9 7 7 7 10 10 12 16 33 30 28 24 16 18 15 11 10 10 9 8 9 11 13 17 18 21 25 31 33 32 33 35 35 33 35 30 28 33 38 41 44 42 40 38
6 6 6 8 10 12 14 9 8 4 6 7 8 11 11 8 9 10 16 29 25 18 21 17 13 10 8 7 4 4 7 8 7 11 15 23 30 30 29 28 30 35 29 30 31 26 25 27 36 40 36 38 38 37
Wind_Direction_500mb
212 215 215 218 225 230 235 233 246 252 261 283 298 322 342 8 10 19 13 20 22 13 65 61 51 57 65 43 94 345 51 13 52 67 112 201 136 207 94 173 187 165 131 153 95 89 282 168 128 172 191 165 184 208
208 211 214 216 220 225 234 235 236 253 262 265 283 299 319 345 353 351 354 6 6 326 254 18 51 76 63 41 29 28 119 108 130 91 107 111 121 74 143 201 50 193 177 178 171 210 241 182 199 181 167 176 197 207
209 205 209 214 216 220 226 232 236 241 253 264 273 280 301 322 330 323 340 341 349 346 293 92 101 99 70 48 30 151 109 121 130 122 143 141 115 132 146 245 196 8 153 123 116 244 229 202 205 195 190 196 201 206
208 207 208 209 208 215 222 227 232 236 243 253 264 271 282 302 297 262 327 6 9 355 23 117 144 122 93 63 42 65 102 106 107 105 103 121 130 192 192 203 175 192 147 149 278 274 238 223 218 212 194 200 206 200
209 208 205 206 204 212 217 219 226 231 236 242 257 257 261 278 267 261 305 330 3 35 283 301 199 169 181 80 44 62 70 117 33 96 70 182 143 132 47 71 272 191 172 156 221 211 194 216 217 204 199 205 214 208
208 209 205 204 207 214 215 215 219 227 234 237 247 258 246 244 228 217 281 250 238 352 344 355 291 225 207 217 74 39 42 46 13 136 154 199 178 180 125 208 241 198 213 223 240 252 216 239 216 206 207 216 220 218
206 209 209 208 209 209 209 209 210 217 222 223 239 245 241 218 199 189 171 198 208 188 299 319 336 170 185 189 180 147 156 44 343 106 288 300 163 194 125 212 204 197 194 199 224 208 208 215 211 210 214 220 227 221
204 206 207 203 203 203 202 203 204 209 208 208 220 245 230 214 200 195 213 243 179 186 1 80 279 263 178 183 189 155 162 185 163 48 265 208 147 65 258 254 220 211 204 208 204 206 230 236 226 217 219 221 221 224
203 204 205 200 199 197 198 198 195 191 195 204 227 228 186 184 167 179 168 172 183 176 254 205 172 219 174 165 136 148 167 76 252 205 239 156 340 226 237 270 258 234 219 223 233 234 246 254 243 224 219 221 229 234
202 202 203 201 200 198 195 190 192 199 199 204 201 169 175 168 151 154 161 183 197 209 229 234 207 254 176 161 122 133 98 133 142 260 152 105 260 262 266 268 276 276 234 225 222 248 261 261 229 223 225 229 256 256
197 201 197 193 191 189 193 191 192 195 187 181 177 172 154 144 135 175 195 181 189 247 217 226 204 201 189 131 181 194 161 142 102 261 134 303 278 259 341 337 256 232 181 191 221 207 126 321 273 201 233 277 269 252
195 195 187 187 185 184 192 193 192 186 180 177 157 135 143 181 173 144 198 199 199 221 207 195 209 198 186 185 147 175 138 79 225 147 91 267 257 336 332 323 231 223 234 237 219 203 222 206 209 221 232 251 248 251
196 191 188 181 184 185 189 193 192 182 172 160 169 165 178 176 61 183 180 236 233 207 195 185 174 170 183 179 115 120 133 213 127 90 219 229 331 3 15 27 338 229 228 232 232 229 209 208 226 258 276 274 256 251
189 189 195 184 184 185 192 188 182 180 171 177 165 188 181 217 238 191 192 195 198 203 177 168 154 161 164 149 146 146 212 124 107 162 236 263 32 42 56 62 86 86 108 133 152 161 164 192 253 309 331 324 307 287
176 188 193 190 186 183 180 181 184 186 189 168 190 219 209 230 238 241 224 214 161 98 159 151 115 163 143 133 188 115 132 212 189 206 218 128 91 86 83 79 82 84 90 98 102 115 134 188 271 285 303 310 319 320
176 181 186 178 186 178 175 175 180 181 254 225 223 258 227 258 255 234 231 233 233 239 152 182 126 127 220 160 142 204 148 194 206 173 130 122 113 102 98 94 88 84 78 72 64 51 29 5 5 356 333 314 302 300
156 149 160 168 166 163 163 169 144 181 222 238 257 254 258 279 263 253 235 225 212 198 199 147 160 201 130 148 175 179 181 183 148 139 132 121 118 111 105 100 91 85 78 69 60 50 47 39 18 351 344 333 317 313
156 149 161 163 161 152 140 133 134 199 241 254 265 276 230 247 260 253 233 210 188 197 188 216 145 160 182 154 220 191 136 132 135 134 128 124 119 113 106 98 90 77 66 58 53 47 33 18 12 14 359 345 334 328
150 152 158 164 160 132 109 160 158 195 237 262 283 272 269 240 240 242 240 209 193 192 201 172 108 168 204 198 162 153 148 145 137 131 124 118 116 114 107 98 86 68 48 27 17 16 15 8 2 351 339 327 319 315
163 158 158 168 167 97 107 133 176 223 255 250 275 263 251 211 199 177 139 165 167 166 145 141 183 183 184 157 156 149 144 140 135 125 120 120 118 119 99 49 28 17 1 343 335 331 325 324 324 324 322 320 315 309
132 137 140 153 129 125 187 169 179 213 277 264 243 278 201 161 180 229 97 106 152 103 139 174 149 132 125 126 137 138 142 147 150 147 138 131 119 13 351 345 338 330 326 322 321 323 322 320 319 317 317 314 308 300
148 162 163 168 114 199 191 194 193 200 209 247 211 265 209 121 113 85 37 42 63 129 135 141 137 138 136 131 131 136 138 144 141 137 125 3 320 311 308 313 314 316 316 315 313 311 310 311 308 306 306 308 309 309
156 167 124 142 185 204 252 183 189 239 206 195 167 199 17 101 166 154 91 94 112 135 139 146 147 146 147 147 155 160 158 176 204 233 249 260 274 287 292 293 292 293 293 296 297 298 297 295 294 295 295 296 296 295
158 126 170 187 206 211 199 188 201 235 216 178 157 150 218 157 201 210 164 178 156 153 155 160 166 167 173 174 177 177 182 191 205 209 216 235 258 272 278 284 290 294 296 294 292 291 291 294 296 296 297 296 294 293
160 208 211 229 204 201 202 193 209 183 172 206 201 185 183 151 176 213 199 191 183 178 178 187 194 201 193 187 189 191 192 194 203 222 257 280 288 291 293 294 293 290 289 289 287 288 291 294 299 304 307 309 313 313
218 203 197 203 178 193 188 186 194 177 168 207 196 152 158 127 156 224 213 195 195 200 209 203 197 194 196 200 195 194 198 214 241 267 290 300 310 314 316 315 313 312 312 305 305 307 306 307 308 310 308 310 312 312
247 209 211 214 207 197 195 228 165 153 175 168 165 150 156 175 216 222 198 198 195 187 185 186 194 198 194 190 195 208 222 241 265 287 304 315 333 343 337 332 332 328 323 316 314 313 311 311 312 314 313 310 308 305
256 229 219 183 201 170 154 143 145 183 182 161 142 179 184 188 230 187 193 200 185 173 167 167 171 179 191 203 219 233 244 259 274 283 284 285 324 342 332 326 333 325 319 316 312 310 312 317 316 315 313 312 311 311
242 259 164 174 131 177 153 196 218 198 174 175 161 182 196 193 171 183 201 178 175 179 182 196 206 215 221 223 224 233 251 264 264 266 277 288 297 308 313 314 321 325 320 315 316 314 313 311 309 312 316 313 305 309
262 341 151 178 161 193 162 166 164 162 166 162 161 149 146 141 178 174 174 178 181 188 214 228 224 215 211 209 220 242 272 284 280 283 294 300 308 313 316 315 316 321 319 316 321 320 316 305 309 312 317 317 321 320
80 126 150 100 80 90 129 129 127 125 128 140 160 182 160 164 190 190 182 181 191 199 212 206 196 199 209 217 225 237 256 270 279 287 292 298 301 311 321 326 329 327 320 315 317 320 319 321 332 333 333 329 329 331
200 151 122 128 127 147 146 155 154 143 153 140 143 160 166 177 201 211 208 200 203 205 206 193 194 200 208 219 242 260 276 284 287 296 296 299 307 312 314 315 321 329 326 324 322 319 322 334 338 344 343 343 338 343
188 166 141 131 144 179 193 187 195 171 193 206 198 192 201 219 237 224 203 203 209 209 192 184 185 196 192 188 218 275 306 310 310 317 321 321 321 319 317 317 325 335 335 333 329 320 325 332 335 341 349 356 351 348
Wind_Speed_850mb
51 61 62 55 48 39 31 20 14 11 13 14 12 9 10 9 9 10 13 20 14 6 7 11 14 13 12 10 3 6 6 10 9 9 6 5 5 5 6 5 7 10 10 5 6 5 7 21 11 11 12 19 17 20
44 48 58 60 53 46 39 32 24 15 10 15 15 11 9 6 4 6 7 14 13 5 1 8 12 14 17 20 8 6 5 4 6 9 2 5 3 3 6 6 2 2 11 10 14 11 4 41 5 16 26 29 25 23
53 42 44 53 55 48 41 37 34 27 18 13 15 14 9 7 5 6 9 10 10 7 2 4 9 12 14 18 18 2 2 5 8 7 12 5 5 6 6 7 2 1 6 6 5 6 10 31 14 18 31 20 11 14
55 48 44 41 44 47 44 39 36 34 29 22 18 16 11 8 3 4 6 10 10 6 3 2 8 9 11 14 14 17 17 16 16 9 5 5 5 10 7 4 5 5 11 8 6 9 3 16 35 23 28 20 20 24
61 53 49 45 39 38 39 40 36 34 31 24 21 19 15 8 5 6 5 4 7 6 3 6 2 6 8 4 8 6 4 2 1 3 5 3 9 8 2 3 4 13 12 8 10 16 20 19 35 36 33 27 28 28
60 60 51 45 40 36 37 36 34 33 30 26 22 17 16 12 8 5 3 5 7 4 8 5 3 5 13 5 4 4 5 4 1 1 2 3 5 5 6 6 10 18 18 20 8 14 32 13 26 37 35 29 26 31
55 59 60 48 44 39 35 33 30 29 27 22 16 13 12 14 17 12 3 3 9 4 3 8 12 2 15 11 3 4 7 1 2 1 1 2 4 4 5 9 17 29 22 14 11 15 15 20 27 37 36 35 36 39
49 55 58 55 45 41 35 33 32 29 26 20 13 9 11 15 19 18 5 2 8 5 2 2 9 2 16 8 6 6 8 8 2 1 2 2 4 1 6 13 20 33 24 17 11 21 16 19 30 36 43 42 44 46
46 50 54 59 47 40 35 34 32 31 28 19 10 6 8 11 11 16 8 5 10 2 2 4 6 6 12 8 7 6 6 3 2 2 3 4 2 7 15 18 21 31 35 23 20 18 23 29 30 35 41 39 39 45
44 45 50 59 54 41 35 32 29 33 30 18 10 8 8 15 16 22 9 6 9 10 9 9 7 5 7 8 4 6 2 3 1 4 4 3 7 27 35 31 20 18 16 23 16 16 22 20 31 27 32 28 27 33
47 40 47 53 51 44 36 35 36 34 27 20 14 7 16 28 17 11 7 6 7 4 12 11 22 6 12 6 7 6 5 2 2 7 7 3 6 8 21 20 25 22 8 9 15 6 4 5 7 14 11 13 23 31
47 46 50 50 52 50 44 40 39 36 24 23 14 19 27 9 7 7 4 2 6 10 12 14 19 27 10 11 6 9 5 3 8 9 5 4 7 22 21 18 2 24 34 22 10 4 10 11 11 13 18 15 19 30
43 54 49 48 55 54 47 43 42 39 26 23 11 12 9 7 6 13 14 6 5 12 16 15 9 13 12 10 7 6 6 9 15 4 6 8 14 19 17 17 2 12 20 29 28 17 15 17 14 13 18 21 25 24
46 61 49 61 60 55 47 44 43 37 28 11 11 4 10 6 9 10 11 9 11 8 24 28 17 7 9 8 7 8 6 8 4 4 8 4 9 18 21 18 9 17 18 19 18 17 13 8 7 9 13 16 20 26
52 53 60 56 58 55 47 45 40 37 12 7 8 8 11 14 11 9 19 8 7 11 20 15 9 8 3 6 4 6 5 7 9 10 5 7 11 18 22 26 28 29 25 22 17 12 7 3 5 8 11 17 21 21
46 51 53 59 55 62 51 44 32 31 5 6 9 6 10 3 9 17 21 20 16 10 6 6 7 6 7 6 7 12 14 10 7 7 21 26 29 30 32 30 30 27 23 20 16 13 10 10 11 11 11 12 16 21
53 44 51 50 53 57 49 37 22 11 9 6 8 14 21 20 21 18 17 21 18 19 6 8 9 14 7 5 7 6 11 7 31 39 32 32 33 33 31 30 28 24 22 21 20 20 21 19 15 14 15 15 17 19
43 52 52 55 49 40 33 12 11 7 4 11 12 8 11 18 16 18 16 24 30 26 14 7 9 6 7 11 5 9 17 39 40 41 39 37 35 32 26 24 21 19 20 20 21 19 17 19 22 23 22 23 25 26
55 56 43 44 45 22 8 12 8 8 15 12 16 25 17 11 13 12 12 25 33 25 13 12 6 6 7 9 17 45 53 56 55 46 41 35 30 23 19 16 14 13 15 17 20 22 22 22 21 21 22 23 23 23
51 57 53 47 41 9 7 6 12 4 6 4 12 13 7 6 10 6 8 20 25 17 7 5 9 10 11 27 51 55 52 52 50 46 37 28 20 11 6 7 11 14 15 18 21 23 25 26 29 32 33 33 35 35
45 40 39 30 22 8 5 8 9 7 4 7 16 9 4 9 7 3 3 6 6 4 6 7 26 49 43 45 47 47 43 32 26 23 22 15 7 5 12 18 21 26 30 33 36 37 39 41 41 41 40 39 37 37
46 53 28 30 6 4 4 12 8 3 8 10 13 9 4 7 4 2 3 7 5 4 15 42 47 49 46 42 37 30 26 20 16 9 4 2 6 12 18 22 24 27 30 32 34 36 37 36 36 36 37 37 35 33
37 34 16 9 6 8 7 16 10 8 8 9 14 2 2 4 1 6 4 3 6 28 35 36 38 36 33 30 24 20 16 9 6 7 9 12 15 18 22 26 29 31 34 35 40 44 46 49 51 53 54 55 57 56
23 8 8 10 13 6 5 10 11 8 6 5 7 7 5 9 6 2 3 6 17 30 31 32 34 36 32 31 29 27 25 23 20 18 15 12 14 19 25 30 35 40 44 49 51 53 54 54 56 58 59 62 64 65
7 8 6 8 10 7 9 6 7 6 5 7 7 5 10 16 4 5 7 13 27 28 28 27 35 38 43 39 33 31 28 22 17 13 13 19 26 32 36 39 40 42 43 45 46 49 52 52 51 53 53 50 51 53
11 19 15 17 16 11 10 9 11 10 7 8 10 10 9 8 7 8 8 23 29 31 30 34 44 46 43 40 40 35 25 19 17 17 18 22 25 30 34 38 42 40 37 38 41 43 44 45 46 48 45 44 51 57
5 10 15 17 11 12 10 8 8 8 7 6 6 6 5 8 9 8 16 26 31 31 30 33 37 43 41 38 32 26 21 18 16 15 16 17 17 24 28 30 32 33 34 36 39 42 45 47 47 48 49 53 55 58
9 9 9 13 8 9 6 6 7 9 8 11 16 6 12 12 8 7 12 23 26 31 31 28 26 24 22 20 18 18 19 18 17 18 19 16 13 20 24 23 26 34 38 41 39 36 39 43 49 55 57 60 61 61
11 7 12 8 3 3 6 6 6 7 10 16 11 7 9 8 9 11 12 26 32 28 18 15 16 15 14 14 14 15 17 21 24 24 25 26 25 23 28 33 36 39 41 39 36 39 43 46 46 48 57 62 65 67
3 3 4 5 5 3 3 7 11 14 12 11 9 11 10 11 8 14 21 25 23 17 16 18 18 16 15 15 15 15 16 14 14 19 24 28 30 32 37 34 36 36 35 37 42 45 41 37 37 50 62 60 59 63
0 4 4 2 4 5 16 24 23 18 12 7 7 8 12 11 12 20 22 20 19 19 15 16 17 16 15 14 14 14 13 13 15 18 22 25 27 29 32 34 36 40 36 39 41 44 35 35 43 48 50 52 50 45
4 3 5 4 6 15 13 6 6 5 9 7 7 7 10 10 12 16 33 30 28 24 16 18 15 11 10 10 9 8 9 11 13 17 18 21 25 31 33 32 33 35 35 33 35 30 28 33 38 41 44 42 40 38
6 6 6 8 10 12 14 9 8 4 6 7 8 11 11 8 9 10 16 29 25 18 21 17 13 10 8 7 4 4 7 8 7 11 15 23 30 30 29 28 30 35 29 30 31 26 25 27 36 40 36 38 38 37
Wind_Direction_850mb
212 215 215 218 225 230 235 233 246 252 261 283 298 322 342 8 10 19 13 20 22 13 65 61 51 57 65 43 94 345 51 13 52 67 112 201 136 207 94 173 187 165 131 153 95 89 282 168 128 172 191 165 184 208
208 211 214 216 220 225 234 235 236 253 262 265 283 299 319 345 353 351 354 6 6 326 254 18 51 76 63 41 29 28 119 108 130 91 107 111 121 74 143 201 50 193 177 178 171 210 241 182 199 181 167 176 197 207
209 205 209 214 216 220 226 232 236 241 253 264 273 280 301 322 330 323 340 341 349 346 293 92 101 99 70 48 30 151 109 121 130 122 143 141 115 132 146 245 196 8 153 123 116 244 229 202 205 195 190 196 201 206
208 207 208 209 208 215 222 227 232 236 243 253 264 271 282 302 297 262 327 6 9 355 23 117 144 122 93 63 42 65 102 106 107 105 103 121 130 192 192 203 175 192 147 149 278 274 238 223 218 212 194 200 206 200
209 208 205 206 204 212 217 219 226 231 236 242 257 257 261 278 267 261 305 330 3 35 283 301 199 169 181 80 44 62 70 117 33 96 70 182 143 132 47 71 272 191 172 156 221 211 194 216 217 204 199 205 214 208
208 209 205 204 207 214 215 215 219 227 234 237 247 258 246 244 228 217 281 250 238 352 344 355 291 225 207 217 74 39 42 46 13 136 154 199 178 180 125 208 241 198 213 223 240 252 216 239 216 206 207 216 220 218
206 209 209 208 209 209 209 209 210 217 222 223 239 245 241 218 199 189 171 198 208 188 299 319 336 170 185 189 180 147 156 44 343 106 288 300 163 194 125 212 204 197 194 199 224 208 208 215 211 210 214 220 227 221
204 206 207 203 203 203 202 203 204 209 208 208 220 245 230 214 200 195 213 243 179 186 1 80 279 263 178 183 189 155 162 185 163 48 265 208 147 65 258 254 220 211 204 208 204 206 230 236 226 217 219 221 221 224
203 204 205 200 199 197 198 198 195 191 195 204 227 228 186 184 167 179 168 172 183 176 254 205 172 219 174 165 136 148 167 76 252 205 239 156 340 226 237 270 258 234 219 223 233 234 246 254 243 224 219 221 229 234
202 202 203 201 200 198 195 190 192 199 199 204 201 169 175 168 151 154 161 183 197 209 229 234 207 254 176 161 122 133 98 133 142 260 152 105 260 262 266 268 276 276 234 225 222 248 261 261 229 223 225 229 256 256
197 201 197 193 191 189 193 191 192 195 187 181 177 172 154 144 135 175 195 181 189 247 217 226 204 201 189 131 181 194 161 142 102 261 134 303 278 259 341 337 256 232 181 191 221 207 126 321 273 201 233 277 269 252
195 195 187 187 185 184 192 193 192 186 180 177 157 135 143 181 173 144 198 199 199 221 207 195 209 198 186 185 147 175 138 79 225 147 91 267 257 336 332 323 231 223 234 237 219 203 222 206 209 221 232 251 248 251
196 191 188 181 184 185 189 193 192 182 172 160 169 165 178 176 61 183 180 236 233 207 195 185 174 170 183 179 115 120 133 213 127 90 219 229 331 3 15 27 338 229 228 232 232 229 209 208 226 258 276 274 256 251
189 189 195 184 184 185 192 188 182 180 171 177 165 188 181 217 238 191 192 195 198 203 177 168 154 161 164 149 146 146 212 124 107 162 236 263 32 42 56 62 86 86 108 133 152 161 164 192 253 309 331 324 307 287
176 188 193 190 186 183 180 181 184 186 189 168 190 219 209 230 238 241 224 214 161 98 159 151 115 163 143 133 188 115 132 212 189 206 218 128 91 86 83 79 82 84 90 98 102 115 134 188 271 285 303 310 319 320
176 181 186 178 186 178 175 175 180 181 254 225 223 258 227 258 255 234 231 233 233 239 152 182 126 127 220 160 142 204 148 194 206 173 130 122 113 102 98 94 88 84 78 72 64 51 29 5 5 356 333 314 302 300
156 149 160 168 166 163 163 169 144 181 222 238 257 254 258 279 263 253 235 225 212 198 199 147 160 201 130 148 175 179 181 183 148 139 132 121 118 111 105 100 91 85 78 69 60 50 47 39 18 351 344 333 317 313
156 149 161 163 161 152 140 133 134 199 241 254 265 276 230 247 260 253 233 210 188 197 188 216 145 160 182 154 220 191 136 132 135 134 128 124 119 113 106 98 90 77 66 58 53 47 33 18 12 14 359 345 334 328
150 152 158 164 160 132 109 160 158 195 237 262 283 272 269 240 240 242 240 209 193 192 201 172 108 168 204 198 162 153 148 145 137 131 124 118 116 114 107 98 86 68 48 27 17 16 15 8 2 351 339 327 319 315
163 158 158 168 167 97 107 133 176 223 255 250 275 263 251 211 199 177 139 165 167 166 145 141 183 183 184 157 156 149 144 140 135 125 120 120 118 119 99 49 28 17 1 343 335 331 325 324 324 324 322 320 315 309
132 137 140 153 129 125 187 169 179 213 277 264 243 278 201 161 180 229 97 106 152 103 139 174 149 132 125 126 137 138 142 147 150 147 138 131 119 13 351 345 338 330 326 322 321 323 322 320 319 317 317 314 308 300
148 162 163 168 114 199 191 194 193 200 209 247 211 265 209 121 113 85 37 42 63 129 135 141 137 138 136 131 131 136 138 144 141 137 125 3 320 311 308 313 314 316 316 315 313 311 310 311 308 306 306 308 309 309
156 167 124 142 185 204 252 183 189 239 206 195 167 199 17 101 166 154 91 94 112 135 139 146 147 146 147 147 155 160 158 176 204 233 249 260 274 287 292 293 292 293 293 296 297 298 297 295 294 295 295 296 296 295
158 126 170 187 206 211 199 188 201 235 216 178 157 150 218 157 201 210 164 178 156 153 155 160 166 167 173 174 177 177 182 191 205 209 216 235 258 272 278 284 290 294 296 294 292 291 291 294 296 296 297 296 294 293
160 208 211 229 204 201 202 193 209 183 172 206 201 185 183 151 176 213 199 191 183 178 178 187 194 201 193 187 189 191 192 194 203 222 257 280 288 291 293 294 293 290 289 289 287 288 291 294 299 304 307 309 313 313
218 203 197 203 178 193 188 186 194 177 168 207 196 152 158 127 156 224 213 195 195 200 209 203 197 194 196 200 195 194 198 214 241 267 290 300 310 314 316 315 313 312 312 305 305 307 306 307 308 310 308 310 312 312
247 209 211 214 207 197 195 228 165 153 175 168 165 150 156 175 216 222 198 198 195 187 185 186 194 198 194 190 195 208 222 241 265 287 304 315 333 343 337 332 332 328 323 316 314 313 311 311 312 314 313 310 308 305
256 229 219 183 201 170 154 143 145 183 182 161 142 179 184 188 230 187 193 200 185 173 167 167 171 179 191 203 219 233 244 259 274 283 284 285 324 342 332 326 333 325 319 316 312 310 312 317 316 315 313 312 311 311
242 259 164 174 131 177 153 196 218 198 174 175 161 182 196 193 171 183 201 178 175 179 182 196 206 215 221 223 224 233 251 264 264 266 277 288 297 308 313 314 321 325 320 315 316 314 313 311 309 312 316 313 305 309
262 341 151 178 161 193 162 166 164 162 166 162 161 149 146 141 178 174 174 178 181 188 214 228 224 215 211 209 220 242 272 284 280 283 294 300 308 313 316 315 316 321 319 316 321 320 316 305 309 312 317 317 321 320
80 126 150 100 80 90 129 129 127 125 128 140 160 182 160 164 190 190 182 181 191 199 212 206 196 199 209 217 225 237 256 270 279 287 292 298 301 311 321 326 329 327 320 315 317 320 319 321 332 333 333 329 329 331
200 151 122 128 127 147 146 155 154 143 153 140 143 160 166 177 201 211 208 200 203 205 206 193 194 200 208 219 242 260 276 284 287 296 296 299 307 312 314 315 321 329 326 324 322 319 322 334 338 344 343 343 338 343
188 166 141 131 144 179 193 187 195 171 193 206 198 192 201 219 237 224 203 203 209 209 192 184 185 196 192 188 218 275 306 310 310 317 321 321 321 319 317 317 325 335 335 333 329 320 325 332 335 341 349 356 351 348